[[{"header":{"parameterUnit":"m.s-1","parameterCategory":1,"la1":30.2991,"la2":30.254,"lo1":-89.0895,"lo2":-89.0444,"dy":0.0017,"dx":0.0017,"nx":28,"ny":28,"refTime":"2023-10-15T03:00:00:Z","depth":0,"parameterNumber":2,"parameterNumberName":"U-component_of_WINDS"},"data":[0,0,0,0,0,0,0,0,0,0,0,0,0,0,0,0,0,0,0,0,0,0,0,0,0,0,0,0,0,0,0,0,0,0,0,0,0,0,0,0,0,0,0,0,0,0,0,0,0,0,0,0,0,0,0,0,0,0,1.3122,1.3122,0,1.3141,1.3142,1.3142,1.3151,1.3151,1.3151,1.3151,1.3168,1.3169,1.3169,0,0,0,0,0,0,0,0,0,0,0,0,0,1.3093,1.3093,1.3122,1.3122,1.3123,1.3141,1.3142,1.3142,1.3151,1.3151,1.3151,1.3151,1.3168,1.3169,1.3169,0,0,0,0,0,0,0,0,0,0,0,0,0,1.3108,1.3094,1.3122,1.3129,1.313,1.3141,1.3142,1.3142,1.3151,1.3151,1.3151,1.3151,1.3168,1.3169,1.317,1.3174,0,0,1.3172,1.3172,0,0,0,0,0,0,0,0,1.3107,1.3109,1.3128,1.3129,1.313,1.3144,1.3138,1.3153,1.3151,1.3143,1.3151,1.3151,1.316,1.3161,1.3165,1.3175,1.3176,1.3172,1.3172,1.3173,1.3173,0,0,0,0,0,0,0,1.3106,1.3108,1.313,1.3128,1.3129,1.3132,1.3134,1.3141,1.3151,1.3143,1.3144,1.3146,1.3161,1.3164,1.3166,1.3176,1.3172,1.3172,1.3173,1.3173,1.3193,1.3193,0,0,0,0,0,0,1.3104,1.3108,1.3129,1.313,1.3118,1.3132,1.3134,1.3139,1.3151,1.3153,1.3146,1.3147,1.3163,1.3165,1.3166,1.3174,1.3173,1.3173,1.3174,1.3193,1.3193,1.3193,0,0,0,0,0,0,1.3103,1.3106,1.3128,1.3119,1.3122,1.3133,1.3138,1.314,1.3143,1.3153,1.3155,1.3148,1.3163,1.3165,1.3173,1.3174,1.3174,1.3174,1.3193,1.3193,1.3193,1.3188,0,0,0,0,0,0,1.3103,1.3106,1.3107,1.3119,1.3123,1.3135,1.3138,1.314,1.3145,1.3145,1.3156,1.3157,1.3163,1.3172,1.3174,1.3175,1.3175,1.3193,1.3193,1.3193,1.3188,1.3188,1.3188,0,0,0,0,0,1.3102,1.3104,1.3107,1.311,1.3125,1.3135,1.3137,1.3144,1.3145,1.3147,1.3154,1.3157,1.3174,1.3172,1.3175,1.3176,1.3193,1.3193,1.3193,1.3188,1.3188,1.3188,0,0,0,0,0,0,1.3091,1.3106,1.3109,1.3116,1.3124,1.3136,1.3139,1.3143,1.315,1.3151,1.3159,1.3161,1.3168,1.3173,1.3171,1.3183,1.3184,1.3185,1.3179,1.3179,1.3179,1.3177,1.3175,0,0,0,0,0,1.309,1.3097,1.3109,1.3114,1.3118,1.3128,1.3132,1.3137,1.3146,1.3149,1.3156,1.3164,1.3171,1.3175,1.3182,1.3189,1.3192,1.3192,1.3192,1.3192,1.3192,1.3197,1.3197,1.3194,1.3194,1.3194,0,0,1.3087,1.3096,1.3099,1.3112,1.3119,1.3126,1.313,1.3137,1.3142,1.315,1.3157,1.3163,1.3173,1.318,1.3184,1.3185,1.3194,1.3192,1.3192,1.3192,1.3197,1.3197,1.3198,1.3194,1.3194,1.3194,0,0,1.3085,1.3092,1.3098,1.3105,1.3116,1.3123,1.3124,1.3136,1.3141,1.3149,1.3155,1.3162,1.3174,1.318,1.3185,1.3189,1.3192,1.3191,1.319,1.3195,1.3195,1.3195,1.3197,1.3197,1.3191,1.3191,1.3191,0,1.308,1.3091,1.31,1.3107,1.3113,1.3121,1.3127,1.3133,1.3146,1.315,1.3151,1.3167,1.3174,1.3184,1.3185,1.3189,1.3191,1.3189,1.3194,1.3195,1.3195,1.3197,1.3197,1.3191,1.3191,1.3191,1.3191,0,1.3084,1.3092,1.3095,1.3108,1.3114,1.312,1.3131,1.3136,1.3141,1.3148,1.3158,1.3166,1.3176,1.3179,1.3184,1.319,1.319,1.3193,1.3194,1.3195,1.3197,1.3197,1.3191,1.3191,1.3191,1.3191,0,0,1.3074,1.3094,1.3095,1.3102,1.3115,1.3121,1.3129,1.3139,1.3144,1.3153,1.3159,1.3171,1.3174,1.3179,1.3185,1.319,1.3193,1.3192,1.3192,1.3192,1.3201,1.3199,1.3199,1.3196,1.3196,1.3196,1.32,0,1.3074,1.3088,1.3097,1.3107,1.3115,1.3125,1.3131,1.314,1.3148,1.3155,1.3163,1.3171,1.3174,1.3178,1.3183,1.3191,1.3195,1.3191,1.3202,1.3202,1.3199,1.32,1.3198,1.3201,1.3201,1.3201,1.3201,0,1.3075,1.3085,1.3096,1.3111,1.3115,1.312,1.3132,1.3139,1.315,1.3155,1.3163,1.3169,1.3178,1.3179,1.3192,1.3189,1.3194,1.3199,1.32,1.32,1.3201,1.3201,1.3202,1.3203,1.3202,1.3202,1.3202,0,1.3067,1.3084,1.3093,1.3098,1.3115,1.3119,1.3126,1.3138,1.3144,1.3154,1.3159,1.3169,1.3175,1.3183,1.3193,1.3193,1.3204,1.3206,1.3209,1.3208,1.321,1.3209,1.3212,1.3214,1.3214,1.3214,1.3214,0,1.3066,1.3072,1.309,1.3095,1.3103,1.3115,1.3122,1.313,1.3141,1.3148,1.3157,1.3164,1.3176,1.3185,1.3192,1.3202,1.3204,1.3208,1.321,1.3207,1.3207,1.321,1.321,1.3214,1.3214,1.3214,1.3214,0,1.3058,1.307,1.308,1.3097,1.3101,1.3106,1.312,1.3126,1.3135,1.3144,1.3147,1.316,1.3171,1.3182,1.3196,1.3201,1.321,1.3213,1.3207,1.3207,1.321,1.3209,1.3214,1.3215,1.3216,1.3216,1.3216,0,1.3056,1.3061,1.3079,1.3085,1.3092,1.3102,1.3109,1.3121,1.3128,1.3143,1.3147,1.3159,1.3168,1.3185,1.3196,1.3207,1.321,1.3211,1.3212,1.3209,1.321,1.321,1.321,1.321,1.321,1.321,1.321,0,1.3051,1.3058,1.3068,1.308,1.3089,1.3099,1.311,1.3114,1.3128,1.3136,1.3148,1.3155,1.3171,1.3182,1.3195,1.3203,1.3209,1.321,1.3211,1.3208,1.3204,1.3207,1.3205,1.321,1.321,1.321,1.321,1.321,1.3046,1.3052,1.3066,1.3077,1.3087,1.3097,1.3104,1.3114,1.3125,1.3138,1.3145,1.3157,1.317,1.3188,1.3196,1.3205,1.3207,1.3208,1.3209,1.3209,1.3208,1.3204,1.3208,1.3208,1.3208,1.3208,1.3208,0,1.3042,1.3052,1.3063,1.3078,1.3087,1.3094,1.3106,1.3114,1.3124,1.3136,1.3146,1.316,1.3172,1.3185,1.3197,1.3203,1.3206,1.3206,1.3205,1.3207,1.3206,1.3204,1.3203,1.3203,1.3203,1.3203,1.3203,1.3203,1.3041,1.3052,1.306,1.3076,1.3086,1.3098,1.3105,1.3114,1.3124,1.314,1.315,1.3159,1.3171,1.3185,1.3197,1.32,1.3204,1.3203,1.3207,1.3206,1.3207,1.3207,1.3205,1.3204,1.3204,1.3207,1.3207,1.3207]},{"header":{"parameterUnit":"m.s-1","parameterCategory":1,"la1":30.2991,"la2":30.254,"lo1":-89.0895,"lo2":-89.0444,"dy":0.0017,"dx":0.0017,"nx":28,"ny":28,"refTime":"2023-10-15T03:00:00:Z","depth":0,"parameterNumber":3,"parameterNumberName":"V-component_of_WINDS"},"data":[0,0,0,0,0,0,0,0,0,0,0,0,0,0,0,0,0,0,0,0,0,0,0,0,0,0,0,0,0,0,0,0,0,0,0,0,0,0,0,0,0,0,0,0,0,0,0,0,0,0,0,0,0,0,0,0,0,0,-8.432,-8.4321,0,-8.4469,-8.447,-8.4472,-8.4341,-8.4336,-8.4331,-8.4326,-8.4472,-8.4481,-8.449,0,0,0,0,0,0,0,0,0,0,0,0,0,-8.3917,-8.3925,-8.4319,-8.4321,-8.4323,-8.4468,-8.447,-8.4472,-8.4342,-8.4336,-8.4329,-8.4323,-8.447,-8.448,-8.4491,0,0,0,0,0,0,0,0,0,0,0,0,0,-8.4081,-8.3927,-8.4319,-8.4276,-8.4274,-8.4468,-8.447,-8.4473,-8.4344,-8.4336,-8.4328,-8.432,-8.4466,-8.4479,-8.4492,-8.4735,0,0,-8.4533,-8.4539,0,0,0,0,0,0,0,0,-8.4072,-8.4096,-8.428,-8.4279,-8.4277,-8.4378,-8.4382,-8.4561,-8.4346,-8.4317,-8.4325,-8.4316,-8.4447,-8.4462,-8.4507,-8.4742,-8.4748,-8.4534,-8.4542,-8.4548,-8.4552,0,0,0,0,0,0,0,-8.4061,-8.4089,-8.4378,-8.4283,-8.4281,-8.4247,-8.4262,-8.4415,-8.4425,-8.4319,-8.431,-8.4329,-8.4445,-8.4494,-8.4509,-8.475,-8.4534,-8.4546,-8.4554,-8.4559,-8.5191,-8.52,0,0,0,0,0,0,-8.4055,-8.408,-8.4373,-8.4383,-8.4153,-8.4261,-8.4277,-8.4354,-8.4423,-8.4426,-8.4336,-8.4323,-8.4476,-8.4494,-8.4514,-8.4803,-8.4548,-8.456,-8.4568,-8.5183,-8.5193,-8.5203,0,0,0,0,0,0,-8.4047,-8.4082,-8.4367,-8.4229,-8.4263,-8.4277,-8.4363,-8.4361,-8.4411,-8.4436,-8.4437,-8.4386,-8.447,-8.4495,-8.4681,-8.4807,-8.4566,-8.4578,-8.5172,-8.5186,-8.5198,-8.5384,0,0,0,0,0,0,-8.4036,-8.408,-8.4174,-8.4232,-8.4271,-8.4535,-8.4371,-8.437,-8.4435,-8.4419,-8.4483,-8.4486,-8.4466,-8.4662,-8.4695,-8.4821,-8.4589,-8.5161,-8.5178,-8.5194,-8.5367,-8.5402,-8.5432,0,0,0,0,0,-8.4022,-8.4219,-8.4179,-8.4215,-8.4389,-8.4542,-8.4564,-8.4539,-8.4445,-8.4539,-8.4555,-8.4484,-8.4788,-8.4682,-8.4718,-8.485,-8.5153,-8.5174,-8.5193,-8.5352,-8.5395,-8.5431,0,0,0,0,0,0,-8.4172,-8.4226,-8.4182,-8.4405,-8.447,-8.452,-8.4637,-8.4585,-8.4677,-8.4658,-8.462,-8.4636,-8.4832,-8.4859,-8.4741,-8.5088,-8.4955,-8.4983,-8.5064,-8.5105,-8.5137,-8.5127,-8.46,0,0,0,0,0,-8.4232,-8.4354,-8.4393,-8.4585,-8.4621,-8.4624,-8.469,-8.4665,-8.473,-8.4756,-8.4786,-8.4851,-8.4961,-8.5034,-8.5136,-8.5369,-8.5381,-8.5477,-8.551,-8.5537,-8.5561,-8.5686,-8.573,-8.5268,-8.5268,-8.5267,0,0,-8.4356,-8.44,-8.4479,-8.4617,-8.4665,-8.479,-8.4648,-8.4787,-8.4879,-8.4777,-8.4955,-8.498,-8.5049,-8.526,-8.5354,-8.5288,-8.5691,-8.5562,-8.5583,-8.5593,-8.5711,-8.5755,-8.5794,-8.5281,-8.5279,-8.5277,0,0,-8.4645,-8.4691,-8.4857,-8.4908,-8.4983,-8.4984,-8.5024,-8.5082,-8.5095,-8.5274,-8.52,-8.5308,-8.5498,-8.5551,-8.5603,-8.5913,-8.585,-8.5947,-8.6118,-8.624,-8.6276,-8.6309,-8.642,-8.646,-8.5971,-8.5972,-8.5972,0,-8.4789,-8.4978,-8.4948,-8.5094,-8.5156,-8.5071,-8.5238,-8.5288,-8.5392,-8.5436,-8.5361,-8.5599,-8.5639,-8.5862,-8.5938,-8.5982,-8.6026,-8.594,-8.6274,-8.6306,-8.6335,-8.6441,-8.6483,-8.5983,-8.5982,-8.598,-8.5979,0,-8.5151,-8.5282,-8.5407,-8.5512,-8.5588,-8.5744,-8.5736,-8.5817,-8.5785,-8.5793,-8.5976,-8.6022,-8.6133,-8.6183,-8.6152,-8.6401,-8.6358,-8.628,-8.6145,-8.6391,-8.649,-8.653,-8.5999,-8.5995,-8.5992,-8.5989,0,0,-8.554,-8.5628,-8.5674,-8.5721,-8.5797,-8.5898,-8.6048,-8.6158,-8.6228,-8.6302,-8.6427,-8.659,-8.6518,-8.6577,-8.6552,-8.6659,-8.6903,-8.6567,-8.6568,-8.6628,-8.718,-8.724,-8.7287,-8.6861,-8.6869,-8.6875,-8.7174,0,-8.5833,-8.6098,-8.6076,-8.6326,-8.6447,-8.6368,-8.6499,-8.6559,-8.6571,-8.6674,-8.6685,-8.6802,-8.6697,-8.6733,-8.6835,-8.6852,-8.7013,-8.6829,-8.6976,-8.6982,-8.6963,-8.7338,-8.7402,-8.7682,-8.7212,-8.7219,-8.7224,0,-8.6211,-8.6302,-8.6564,-8.6623,-8.6673,-8.6792,-8.6891,-8.6991,-8.7057,-8.7057,-8.7124,-8.708,-8.723,-8.7092,-8.7298,-8.7174,-8.7232,-8.7249,-8.7259,-8.7272,-8.7119,-8.7362,-8.7771,-8.7814,-8.7284,-8.7279,-8.7275,0,-8.647,-8.6657,-8.6838,-8.6881,-8.6953,-8.7039,-8.7072,-8.7131,-8.7199,-8.7284,-8.7328,-8.7429,-8.7485,-8.7564,-8.7548,-8.7449,-8.7759,-8.7619,-8.7763,-8.7763,-8.7832,-8.7828,-8.8257,-8.7869,-8.7868,-8.7867,-8.7866,0,-8.6801,-8.6965,-8.6956,-8.7068,-8.7249,-8.722,-8.74,-8.7423,-8.7476,-8.7589,-8.7525,-8.7633,-8.7605,-8.7711,-8.7699,-8.7872,-8.7897,-8.7901,-8.7896,-8.7907,-8.7907,-8.7946,-8.7926,-8.7878,-8.7876,-8.7874,-8.7872,0,-8.7121,-8.7122,-8.7314,-8.7368,-8.7385,-8.7516,-8.7561,-8.7666,-8.7672,-8.7817,-8.7849,-8.7859,-8.798,-8.7972,-8.8108,-8.81,-8.8313,-8.8285,-8.8292,-8.8287,-8.8431,-8.8418,-8.89,-8.8962,-8.8533,-8.8537,-8.8541,0,-8.7333,-8.7457,-8.7525,-8.7598,-8.7638,-8.7755,-8.7825,-8.7801,-8.7876,-8.7961,-8.8055,-8.8171,-8.8263,-8.8461,-8.8479,-8.8583,-8.8557,-8.8718,-8.8572,-8.858,-8.856,-8.8553,-8.8566,-8.8748,-8.8752,-8.8756,-8.8759,0,-8.7708,-8.7703,-8.7806,-8.7911,-8.7997,-8.8077,-8.815,-8.8213,-8.8197,-8.8283,-8.8408,-8.848,-8.862,-8.8736,-8.8835,-8.8867,-8.8812,-8.8806,-8.8844,-8.8858,-8.8858,-8.8861,-8.8372,-8.8795,-8.8791,-8.8789,-8.8787,-8.8785,-8.7981,-8.8088,-8.8154,-8.8271,-8.8324,-8.8395,-8.8496,-8.8516,-8.862,-8.8735,-8.8713,-8.8854,-8.8915,-8.9043,-8.9085,-8.9193,-8.9135,-8.9191,-8.9205,-8.922,-8.9237,-8.884,-8.9211,-8.921,-8.9209,-8.9208,-8.9207,0,-8.8354,-8.8392,-8.8501,-8.8607,-8.8699,-8.864,-8.8718,-8.8799,-8.8924,-8.8987,-8.908,-8.9223,-8.9335,-8.9363,-8.947,-8.9551,-8.9528,-8.958,-8.9574,-8.9583,-8.9282,-8.9239,-8.9597,-8.9597,-8.9597,-8.9597,-8.9597,-8.9596,-8.8559,-8.8738,-8.874,-8.8945,-8.898,-8.9119,-8.9169,-8.9233,-8.9284,-8.9448,-8.9542,-8.9559,-8.9608,-8.9718,-8.9818,-8.9823,-8.9865,-8.9928,-8.9923,-8.9642,-8.9603,-8.9566,-8.9525,-8.9938,-8.9938,-9.0214,-9.0217,-9.0219]}]]